EW8410 Jamestown RI US current weather conditions

sailwx.info

Wind from 151 at 0 knots gusting 1

Air temperature 26.7° C
Dewpoint 20.0° C

Last reported at 2020-Jul-04 20:08 UTC.
Time now 2020-Jul-04 21:15 UTC

Location: N 41°33' W 071°22'.
View on Google Maps.

See reports from other nearby stations

  
Tides and Currents Weather Stations Pressure Air Temp Water Temp Dewpoint Dewpoint Depression Visibility Wind Speed Wind Dir Waves Ship Positions
date/time (UTC)wind fromknots sea level pressurealtimeterstation pressurevisibilityair tempwater tempwave heightnotes
2020-Jul-04 20:08 151 0 gusting 1 26.7
2020-Jul-04 20:00 153 26.7
2020-Jul-04 19:58 191 0 gusting 2 26.7
2020-Jul-04 19:49 191 0 gusting 2 27.2
2020-Jul-04 19:40 204 0 gusting 3 27.2
2020-Jul-04 19:31 136 0 gusting 1 27.2
2020-Jul-04 19:22 205 27.2
2020-Jul-04 19:15 136 27.2
2020-Jul-04 19:13 136 27.2
2020-Jul-04 19:04 147 0 gusting 1 27.2
2020-Jul-04 18:55 180 0 gusting 4 27.2
2020-Jul-04 18:46 180 0 gusting 2 27.2
2020-Jul-04 18:45 179 0 gusting 2 26.7
2020-Jul-04 18:37 193 0 gusting 2 26.7
2020-Jul-04 18:30 191 0 gusting 2 26.1
2020-Jul-04 18:28 185 0 gusting 2 26.7
2020-Jul-04 18:19 176 0 gusting 3 26.7
2020-Jul-04 18:15 177 0 gusting 2 26.1
2020-Jul-04 18:01 138 0 gusting 3 26.1
2020-Jul-04 17:52 176 0 gusting 2 25.6
2020-Jul-04 17:45 189 0 gusting 2 25.0
2020-Jul-04 17:43 182 0 gusting 2 25.6
2020-Jul-04 17:34 126 0 gusting 2 25.6
2020-Jul-04 17:25 094 25.6
2020-Jul-04 17:16 132 0 gusting 2 25.0
2020-Jul-04 17:15 080 0 gusting 2 25.0
2020-Jul-04 17:07 144 0 gusting 3 24.4
2020-Jul-04 16:58 120 0 gusting 3 23.9
2020-Jul-04 16:49 201 23.3
2020-Jul-04 16:40 23.3
2020-Jul-04 16:31 23.3
2020-Jul-04 16:30 091 23.3
2020-Jul-04 16:22 23.3
2020-Jul-04 16:15 019 23.3
2020-Jul-04 16:04 23.3
2020-Jul-04 16:00 019 22.8
2020-Jul-04 15:46 350 0 gusting 3 22.8
2020-Jul-04 15:37 005 0 gusting 3 22.8
2020-Jul-04 15:30 015 0 gusting 3 22.2
2020-Jul-04 15:28 018 0 gusting 3 22.2
2020-Jul-04 15:19 022 0 gusting 2 21.7
2020-Jul-04 15:10 022 0 gusting 2 21.7
2020-Jul-04 15:01 022 0 gusting 2 21.1
2020-Jul-04 15:00 022 0 gusting 2 20.6
2020-Jul-04 14:52 022 0 gusting 2 20.6
2020-Jul-04 14:45 022 0 gusting 2 20.0
2020-Jul-04 14:34 022 0 gusting 2 20.0
2020-Jul-04 14:25 020 0 gusting 2 20.0
2020-Jul-04 14:16 021 0 gusting 3 19.4
2020-Jul-04 14:15 017 0 gusting 3 19.4
2020-Jul-04 14:07 022 0 gusting 2 19.4
2020-Jul-04 14:00 022 18.9
2020-Jul-04 13:58 022 18.9
2020-Jul-04 13:49 18.9
2020-Jul-04 13:45 019 18.9
2020-Jul-04 13:31 18.9
2020-Jul-04 13:22 019 0 gusting 1 18.9
2020-Jul-04 13:15 019 0 gusting 2 18.3
2020-Jul-04 13:13 019 0 gusting 2 18.9
2020-Jul-04 13:04 019 18.3
2020-Jul-04 12:55 019 18.3
2020-Jul-04 12:47 019 18.3
2020-Jul-04 12:45 019 18.3
2020-Jul-04 12:37 019 18.3
2020-Jul-04 12:30 019 17.8
2020-Jul-04 12:19 019 18.3
2020-Jul-04 12:10 019 18.3
2020-Jul-04 12:01 019 17.8
2020-Jul-04 12:00 019 17.8
2020-Jul-04 11:52 019 17.8
2020-Jul-04 11:45 019 17.8
2020-Jul-04 11:43 019 0 gusting 1 17.8
2020-Jul-04 11:34 019 17.8
2020-Jul-04 11:25 019 17.8
2020-Jul-04 11:16 019 0 gusting 1 17.8
2020-Jul-04 11:08 019 0 gusting 1 17.8
2020-Jul-04 11:01 019 17.8
2020-Jul-04 10:58 019 17.8
2020-Jul-04 10:49 17.8
2020-Jul-04 10:40 019 17.8
2020-Jul-04 10:31 019 17.8
2020-Jul-04 10:22 019 0 gusting 2 17.8
2020-Jul-04 10:15 019 0 gusting 2 17.8
2020-Jul-04 10:04 019 17.8
2020-Jul-04 09:55 019 0 gusting 1 17.8
2020-Jul-04 09:46 019 17.8
2020-Jul-04 09:45 019 17.8
2020-Jul-04 09:37 019 17.8
2020-Jul-04 09:30 019 17.8
2020-Jul-04 09:19 019 17.8
2020-Jul-04 09:15 019 17.8
2020-Jul-04 09:01 019 17.8
2020-Jul-04 09:00 019 17.8
2020-Jul-04 08:53 019 17.8
2020-Jul-04 08:45 019 17.8
2020-Jul-04 08:43 17.8
2020-Jul-04 08:34 019 17.8
2020-Jul-04 08:30 019 17.8
2020-Jul-04 08:16 019 17.8
2020-Jul-04 08:07 019 17.8
2020-Jul-04 08:00 019 17.8
2020-Jul-04 07:58 019 17.8
2020-Jul-04 07:49 019 0 gusting 1 17.8
2020-Jul-04 07:41 019 0 gusting 2 17.8
2020-Jul-04 07:31 019 0 gusting 2 17.8
2020-Jul-04 07:22 019 0 gusting 1 17.8
2020-Jul-04 07:15 019 17.8
2020-Jul-04 07:13 019 0 gusting 2 17.8
2020-Jul-04 07:04 019 0 gusting 2 17.8
2020-Jul-04 06:56 019 0 gusting 2 17.8
2020-Jul-04 06:46 019 0 gusting 2 17.8
2020-Jul-04 06:37 023 0 gusting 2 17.8
2020-Jul-04 06:30 025 0 gusting 2 17.8
2020-Jul-04 06:28 025 0 gusting 2 17.8
2020-Jul-04 06:21 025 0 gusting 2 17.8
2020-Jul-04 06:15 025 17.8
2020-Jul-04 06:01 025 0 gusting 1 17.8
2020-Jul-04 06:00 025 17.8
2020-Jul-04 05:52 026 0 gusting 2 17.8
2020-Jul-04 05:45 025 0 gusting 2 17.8
2020-Jul-04 05:43 028 0 gusting 2 17.8
2020-Jul-04 05:34 028 0 gusting 2 17.8
2020-Jul-04 05:25 028 0 gusting 1 17.8
2020-Jul-04 05:16 028 0 gusting 1 17.8
2020-Jul-04 05:07 028 0 gusting 2 17.8
2020-Jul-04 05:00 028 17.8
2020-Jul-04 04:49 028 0 gusting 2 17.8
2020-Jul-04 04:40 028 0 gusting 2 17.8
2020-Jul-04 04:31 028 0 gusting 2 17.8
2020-Jul-04 04:30 028 0 gusting 2 17.8
2020-Jul-04 04:22 028 0 gusting 1 17.8
2020-Jul-04 04:15 028 0 gusting 1 17.8
2020-Jul-04 04:04 028 0 gusting 1 18.3
2020-Jul-04 03:55 028 0 gusting 2 18.3
2020-Jul-04 03:46 028 0 gusting 2 18.3
2020-Jul-04 03:37 028 0 gusting 2 18.3
2020-Jul-04 03:30 028 17.8
2020-Jul-04 03:19 164 18.3
2020-Jul-04 03:10 18.3
2020-Jul-04 03:01 18.3
2020-Jul-04 03:00 036 18.3
2020-Jul-04 02:52 18.3
2020-Jul-04 02:45 036 18.3
2020-Jul-04 02:34 18.3
2020-Jul-04 02:30 036 18.3
2020-Jul-04 02:17 18.3
2020-Jul-04 02:15 036 18.3
2020-Jul-04 02:07 18.3
2020-Jul-04 02:00 036 18.3
2020-Jul-04 01:49 18.9
2020-Jul-04 01:40 18.9
2020-Jul-04 01:31 18.9
2020-Jul-04 01:22 18.9
2020-Jul-04 01:15 036 18.3
2020-Jul-04 01:13 18.9
2020-Jul-04 01:04 18.9
2020-Jul-04 00:55 18.9
2020-Jul-04 00:46 18.9
2020-Jul-04 00:45 036 18.3
2020-Jul-04 00:37 18.9
2020-Jul-04 00:29 18.9
2020-Jul-04 00:19 18.9
2020-Jul-04 00:10 18.9
2020-Jul-04 00:01 18.9
2020-Jul-03 23:52 18.9
2020-Jul-03 23:45 036 18.9
2020-Jul-03 23:34 18.9
2020-Jul-03 23:25 18.9
2020-Jul-03 23:16 19.4
2020-Jul-03 23:15 036 18.9
2020-Jul-03 23:07 19.4
2020-Jul-03 22:58 19.4
2020-Jul-03 22:49 036 19.4
2020-Jul-03 22:40 036 20.0
2020-Jul-03 22:31 036 0 gusting 1 20.0
2020-Jul-03 22:22 036 0 gusting 1 20.0
2020-Jul-03 22:15 036 20.0
2020-Jul-03 22:04 20.6
2020-Jul-03 21:55 036 0 gusting 1 20.6
2020-Jul-03 21:46 036 0 gusting 2 20.6
2020-Jul-03 21:45 036 0 gusting 2 20.6
2020-Jul-03 21:37 036 0 gusting 2 20.6
2020-Jul-03 21:30 036 20.6
2020-Jul-03 21:19 036 0 gusting 2 21.1
2020-Jul-03 21:15 036 0 gusting 2 21.1
2020-Jul-03 21:01 036 0 gusting 2 21.1
2020-Jul-03 21:00 036 21.1
2020-Jul-03 20:53 032 0 gusting 3 21.7
2020-Jul-03 20:45 036 0 gusting 3 21.7
2020-Jul-03 20:43 011 0 gusting 2 21.7
2020-Jul-03 20:34 011 0 gusting 2 22.2
2020-Jul-03 20:25 011 0 gusting 2 22.2
2020-Jul-03 20:16 011 0 gusting 3 22.8
2020-Jul-03 20:15 011 0 gusting 3 22.2
2020-Jul-03 20:07 014 1 gusting 3 22.8
2020-Jul-03 20:00 018 0 gusting 3 22.8
2020-Jul-03 19:58 027 0 gusting 3 23.3
2020-Jul-03 19:49 031 0 gusting 2 23.9
2020-Jul-03 19:40 031 0 gusting 2 23.9
2020-Jul-03 19:32 022 0 gusting 3 24.4
2020-Jul-03 19:30 022 0 gusting 3 23.9
2020-Jul-03 19:22 022 0 gusting 2 24.4
2020-Jul-03 19:15 022 0 gusting 2 24.4
2020-Jul-03 19:13 022 0 gusting 2 24.4
2020-Jul-03 19:04 022 1 gusting 3 25.0
2020-Jul-03 19:00 022 0 gusting 3 25.0
2020-Jul-03 18:46 036 0 gusting 1 25.6
2020-Jul-03 18:45 036 25.0
2020-Jul-03 18:37 026 1 gusting 3 25.6
2020-Jul-03 18:30 034 0 gusting 3 25.6
2020-Jul-03 18:19 026 1 gusting 3 25.6
2020-Jul-03 18:15 027 0 gusting 3 25.6
2020-Jul-03 18:01 032 1 gusting 3 25.6
2020-Jul-03 17:52 027 0 gusting 3 25.6
2020-Jul-03 17:45 022 0 gusting 3 25.0
2020-Jul-03 17:34 033 1 gusting 3 25.0
2020-Jul-03 17:30 042 0 gusting 4 24.4
2020-Jul-03 17:16 026 0 gusting 3 24.4
2020-Jul-03 17:15 039 0 gusting 3 24.4
2020-Jul-03 17:07 020 0 gusting 2 24.4
2020-Jul-03 17:00 022 23.9
2020-Jul-03 16:49 23.9
2020-Jul-03 16:45 022 23.9
2020-Jul-03 16:31 022 24.4
2020-Jul-03 16:30 022 23.9
2020-Jul-03 16:22 022 0 gusting 3 24.4
2020-Jul-03 16:15 022 0 gusting 3 23.9
2020-Jul-03 16:04 022 0 gusting 3 23.9
2020-Jul-03 16:00 022 0 gusting 3 23.9
2020-Jul-03 15:46 022 0 gusting 2 23.3
2020-Jul-03 15:37 022 0 gusting 2 23.3
2020-Jul-03 15:30 022 0 gusting 2 23.3
2020-Jul-03 15:28 022 0 gusting 2 23.3
2020-Jul-03 15:19 022 1 gusting 2 23.9
2020-Jul-03 15:15 022 0 gusting 2 23.9
2020-Jul-03 15:01 024 0 gusting 3 24.4
2020-Jul-03 15:00 022 0 gusting 3 24.4
2020-Jul-03 14:52 026 0 gusting 2 24.4
2020-Jul-03 14:45 026 0 gusting 2 24.4
2020-Jul-03 14:34 054 1 gusting 3 25.0
2020-Jul-03 14:30 039 0 gusting 3 25.0
2020-Jul-03 14:16 026 1 gusting 3 25.6
2020-Jul-03 14:15 026 0 gusting 3 25.0
2020-Jul-03 14:07 025 0 gusting 3 25.6
2020-Jul-03 14:00 021 25.0
2020-Jul-03 13:58 25.6
2020-Jul-03 13:49 034 25.0
2020-Jul-03 13:45 034 24.4
2020-Jul-03 13:32 034 0 gusting 1 24.4
2020-Jul-03 13:30 034 24.4
2020-Jul-03 13:22 034 0 gusting 2 24.4
2020-Jul-03 13:15 034 23.9
2020-Jul-03 13:13 025 0 gusting 2 24.4
2020-Jul-03 13:04 024 0 gusting 2 23.9
2020-Jul-03 12:55 023 0 gusting 2 23.3
2020-Jul-03 12:46 023 0 gusting 1 23.3
2020-Jul-03 12:37 023 0 gusting 1 23.3
2020-Jul-03 12:30 023 0 gusting 1 22.8
2020-Jul-03 12:19 144 22.8
2020-Jul-03 12:10 22.2
2020-Jul-03 12:01 22.2
2020-Jul-03 12:00 148 21.7
2020-Jul-03 11:52 148 22.2
2020-Jul-03 11:45 148 21.7
2020-Jul-03 11:43 148 21.7
2020-Jul-03 11:34 21.7
2020-Jul-03 11:30 148 21.7
2020-Jul-03 11:16 21.7
2020-Jul-03 11:15 148 21.1
2020-Jul-03 11:07 21.7
2020-Jul-03 11:00 148 21.1
2020-Jul-03 10:58 21.7
2020-Jul-03 10:49 21.7
2020-Jul-03 10:45 148 21.1
2020-Jul-03 10:31 21.7
2020-Jul-03 10:30 148 21.1
2020-Jul-03 10:22 21.7
2020-Jul-03 10:15 148 21.1
2020-Jul-03 10:04 21.7
2020-Jul-03 10:00 148 21.1
2020-Jul-03 09:46 21.7
2020-Jul-03 09:45 148 21.1
2020-Jul-03 09:37 21.7
2020-Jul-03 09:30 148 21.1
2020-Jul-03 09:19 21.7
2020-Jul-03 09:15 148 21.1
2020-Jul-03 09:01 21.7
2020-Jul-03 08:52 21.7
2020-Jul-03 08:45 148 21.1
2020-Jul-03 08:34 21.7
2020-Jul-03 08:30 148 21.1
2020-Jul-03 08:16 21.7
2020-Jul-03 08:07 21.7
2020-Jul-03 08:00 148 21.1
2020-Jul-03 07:58 21.7
2020-Jul-03 07:49 21.7
2020-Jul-03 07:40 21.1
2020-Jul-03 07:31 21.1
2020-Jul-03 07:22 21.1
2020-Jul-03 07:15 148 21.1
2020-Jul-03 07:04 21.1
2020-Jul-03 07:00 148 21.1
2020-Jul-03 06:47 21.1
2020-Jul-03 06:37 21.1
2020-Jul-03 06:30 148 21.1
2020-Jul-03 06:19 21.7
2020-Jul-03 06:15 148 21.1
2020-Jul-03 06:01 21.7
2020-Jul-03 06:00 148 21.1
2020-Jul-03 05:52 21.7
2020-Jul-03 05:45 148 21.7
2020-Jul-03 05:34 21.7
2020-Jul-03 05:30 148 21.7
2020-Jul-03 05:16 21.7
2020-Jul-03 05:15 148 21.7
2020-Jul-03 05:07 21.7
2020-Jul-03 05:00 148 21.7
2020-Jul-03 04:49 22.2
2020-Jul-03 04:45 148 21.7
2020-Jul-03 04:31 22.2
2020-Jul-03 04:22 22.2
2020-Jul-03 04:15 148 22.2
2020-Jul-03 04:13 22.2
2020-Jul-03 04:04 22.2
2020-Jul-03 04:00 148 22.2
2020-Jul-03 03:46 22.2
2020-Jul-03 03:45 148 22.2
2020-Jul-03 03:37 148 22.2
2020-Jul-03 03:30 148 22.2
2020-Jul-03 03:19 148 22.2
2020-Jul-03 03:10 22.8
2020-Jul-03 03:01 148 22.8
2020-Jul-03 03:00 148 22.2
2020-Jul-03 02:52 148 22.8
2020-Jul-03 02:45 148 22.2
2020-Jul-03 02:43 148 22.8
2020-Jul-03 02:34 017 0 gusting 3 22.8
2020-Jul-03 02:30 005 22.2
2020-Jul-03 02:16 22.8
2020-Jul-03 02:15 129 22.8
2020-Jul-03 02:07 22.8
2020-Jul-03 02:00 129 22.8
2020-Jul-03 01:58 125 22.8
2020-Jul-03 01:49 124 22.8
2020-Jul-03 01:45 124 22.8
2020-Jul-03 01:31 125 23.3
2020-Jul-03 01:22 151 23.3
2020-Jul-03 01:15 149 23.3
2020-Jul-03 01:04 145 23.3
2020-Jul-03 00:55 145 23.9
2020-Jul-03 00:46 130 23.9
2020-Jul-03 00:45 145 23.9
2020-Jul-03 00:37 116 0 gusting 2 23.9
2020-Jul-03 00:30 103 23.9
2020-Jul-03 00:19 103 24.4
2020-Jul-03 00:10 096 24.4
2020-Jul-03 00:01 321 25.0
2020-Jul-03 00:00 325 24.4
2020-Jul-02 23:52 154 25.0
2020-Jul-02 23:45 181 25.0
2020-Jul-02 23:34 201 0 gusting 4 25.6
2020-Jul-02 23:30 271 25.0
2020-Jul-02 23:16 188 0 gusting 4 25.6
2020-Jul-02 23:07 181 0 gusting 2 25.6
2020-Jul-02 23:00 144 0 gusting 2 25.6
2020-Jul-02 22:58 192 0 gusting 3 25.6
2020-Jul-02 22:49 204 0 gusting 4 26.1
2020-Jul-02 22:40 191 0 gusting 3 26.1
2020-Jul-02 22:31 211 0 gusting 5 26.1
2020-Jul-02 22:30 217 0 gusting 4 26.1
2020-Jul-02 22:22 208 1 gusting 5 26.1
2020-Jul-02 22:15 223 0 gusting 3 26.1
2020-Jul-02 22:13 204 1 gusting 6 26.1
2020-Jul-02 22:04 225 0 gusting 3 26.1
2020-Jul-02 21:55 198 1 gusting 4 26.1
2020-Jul-02 21:46 193 0 gusting 4 26.1
2020-Jul-02 21:45 176 26.1
2020-Jul-02 21:37 198 0 gusting 4 26.1
2020-Jul-02 21:30 227 25.6
2020-Jul-02 21:19 200 1 gusting 6 26.1
2020-Jul-02 21:15 183 1 gusting 6 26.1
2020-Jul-02 21:01 206 1 gusting 6 26.1
2020-Jul-02 21:00 194 2 gusting 6 26.1